Weather in Fukuyama

Japan     34°31′15″N   133°22′01″E
temp.,
°C
wind,
m/s
gust,
m/s
humid.,
%
clouds,
%
prec.,
mm/h
press.,
hPa
HPBL,
m
9 march, tue
tue900:00+5ne23690 0.0 1025141
03:00+4nne237116 0.0 1024123
06:00+4nne1172100 0.0 102577
09:00+8e2361100 0.0 1025451
12:00+13se224895 0.0 1024753
15:00+13s335597 0.0 1022631
18:00+10s1169100 0.0 1022151
21:00+8nw117988 0.0 102337
10 march, wed
wed1000:00+8nw118497 0.0 102439
03:00+7nw228599 0.0 102356
06:00+5nnw228233 0.0 102550
09:00+11n145217 0.0 1027551
12:00+15ne24430 0.0 10271405
15:00+16ese13430 0.0 10261224
18:00+11nne13570 0.0 1027251
21:00+8n22620 0.0 1029111
11 march, thu
thu1100:00+6n11640 0.0 102986
03:00+5nne12580 0.0 102965
06:00+4nne12520 0.0 102963
09:00+8ene234350 0.0 1029359
12:00+14ese2229100 0.0 1029562
15:00+14sse2130100 0.0 1027619
18:00+10s1151100 0.0 1027122
21:00+9sse0050100 0.0 102885
12 march, fri
fri1200:00+9nne1150100 0.0 102723
03:00+8n124999 0.0 102525
06:00+8nne1151100 0.0 102623
09:00+12e0141100 0.0 1026214
12:00+16se1137100 0.0 1026715
15:00+12sse2358100 0.2 1024326
18:00+10nne1284100 1.8 1024222
21:00+11n1289100 3.8 1025184
13 march, sat
sat1300:00+10ne2485100 0.7 1024322
03:00+10ne248499 0.7 1023194
06:00+10nne128379 0.0 1023102
09:00+12ne147082 0.0 1024510
12:00+16se235743 0.0 10231007
15:00+17sse225441 0.1 10211017
18:00+13sse22700 0.0 1021161
21:00+11nne13745 0.0 1022185